TimePDT,TemperatureF,Dew PointF,Humidity,Sea Level PressureIn,VisibilityMPH,Wind Direction,Wind SpeedMPH,Gust SpeedMPH,PrecipitationIn,Events,Conditions,WindDirDegrees,DateUTC
12:15 AM,51.8,35.6,54,29.96,10.0,WNW,9.2,-,N/A,,Unknown,300,2011-10-04 07:15:00
12:35 AM,51.8,33.8,50,29.96,10.0,WNW,9.2,-,N/A,,Unknown,300,2011-10-04 07:35:00
12:55 AM,50.0,32.0,50,29.95,10.0,WNW,9.2,16.1,N/A,,Unknown,290,2011-10-04 07:55:00
1:15 AM,50.0,32.0,50,29.96,10.0,WNW,11.5,-,N/A,,Unknown,290,2011-10-04 08:15:00
1:35 AM,51.8,32.0,47,29.96,10.0,WNW,8.1,-,N/A,,Unknown,290,2011-10-04 08:35:00
1:55 AM,50.0,32.0,50,29.96,10.0,WNW,6.9,-,N/A,,Unknown,290,2011-10-04 08:55:00
2:15 AM,51.8,35.6,54,29.96,9.0,West,9.2,-,N/A,,Overcast,280,2011-10-04 09:15:00
2:35 AM,50.0,39.2,66,29.95,5.0,WNW,5.8,-,N/A,Rain,Light Rain,300,2011-10-04 09:35:00
2:55 AM,50.0,39.2,66,29.95,10.0,West,6.9,-,N/A,,Unknown,270,2011-10-04 09:55:00
3:15 AM,50.0,39.2,66,29.94,10.0,West,3.5,-,N/A,,Overcast,280,2011-10-04 10:15:00
3:35 AM,50.0,39.2,66,29.94,10.0,WSW,6.9,-,N/A,,Overcast,240,2011-10-04 10:35:00
3:55 AM,48.2,37.4,66,29.94,10.0,WNW,11.5,-,N/A,,Overcast,290,2011-10-04 10:55:00
4:15 AM,46.4,41.0,81,29.94,10.0,NW,12.7,19.6,N/A,,Unknown,320,2011-10-04 11:15:00
4:35 AM,46.4,41.0,81,29.95,9.0,NW,13.8,-,N/A,,Overcast,310,2011-10-04 11:35:00
4:55 AM,46.4,41.0,81,29.95,8.0,WNW,12.7,-,N/A,,Unknown,300,2011-10-04 11:55:00
5:15 AM,46.4,42.8,87,29.95,8.0,WNW,9.2,-,N/A,,Unknown,300,2011-10-04 12:15:00
5:55 AM,44.6,41.0,87,29.96,8.0,NW,9.2,-,N/A,,Unknown,320,2011-10-04 12:55:00
6:15 AM,44.6,41.0,87,29.96,7.0,NW,8.1,-,N/A,,Unknown,310,2011-10-04 13:15:00
6:35 AM,44.6,42.8,93,29.96,7.0,NNW,6.9,-,N/A,,Mostly Cloudy,330,2011-10-04 13:35:00
6:55 AM,44.6,42.8,93,29.97,5.0,WNW,6.9,-,N/A,,Mist,290,2011-10-04 13:55:00
7:15 AM,44.6,42.8,93,29.96,5.0,WNW,8.1,-,N/A,,Scattered Clouds,290,2011-10-04 14:15:00
7:35 AM,46.4,42.8,87,29.96,6.0,WNW,9.2,-,N/A,,Mostly Cloudy,290,2011-10-04 14:35:00
7:55 AM,46.4,42.8,87,29.97,6.0,WNW,11.5,-,N/A,,Partly Cloudy,290,2011-10-04 14:55:00
8:15 AM,48.2,41.0,76,29.97,7.0,NW,13.8,-,N/A,,Scattered Clouds,310,2011-10-04 15:15:00
8:35 AM,48.2,41.0,76,29.97,7.0,WNW,11.5,-,N/A,,Clear,300,2011-10-04 15:35:00
8:55 AM,50.0,41.0,71,29.97,8.0,NW,13.8,-,N/A,,Clear,320,2011-10-04 15:55:00
9:15 AM,51.8,41.0,67,29.97,8.0,NW,13.8,-,N/A,,Clear,320,2011-10-04 16:15:00
9:35 AM,53.6,41.0,62,29.97,8.0,NW,13.8,-,N/A,,Clear,310,2011-10-04 16:35:00
9:55 AM,53.6,41.0,62,29.97,9.0,NW,13.8,-,N/A,,Clear,320,2011-10-04 16:55:00
10:15 AM,53.6,41.0,62,29.97,9.0,NW,15.0,18.4,N/A,,Clear,320,2011-10-04 17:15:00
10:35 AM,53.6,41.0,62,29.98,8.0,NW,12.7,19.6,N/A,,Clear,320,2011-10-04 17:35:00
10:55 AM,51.8,42.8,71,29.98,8.0,NW,16.1,-,N/A,,Clear,320,2011-10-04 17:55:00
11:35 AM,55.4,41.0,58,29.98,8.0,NW,16.1,-,N/A,,Clear,320,2011-10-04 18:35:00
11:55 AM,55.4,41.0,58,29.97,8.0,NW,12.7,-,N/A,,Clear,320,2011-10-04 18:55:00
12:15 PM,55.4,41.0,58,29.97,8.0,NW,13.8,-,N/A,,Clear,310,2011-10-04 19:15:00
12:35 PM,53.6,41.0,62,29.96,8.0,WNW,13.8,20.7,N/A,,Clear,300,2011-10-04 19:35:00
12:55 PM,55.4,41.0,58,29.96,8.0,NW,13.8,21.9,N/A,,Clear,310,2011-10-04 19:55:00
1:15 PM,55.4,41.0,58,29.96,9.0,NW,17.3,20.7,N/A,,Clear,310,2011-10-04 20:15:00
1:35 PM,55.4,41.0,58,29.96,10.0,WNW,17.3,26.5,N/A,,Clear,300,2011-10-04 20:35:00
1:55 PM,55.4,41.0,58,29.96,9.0,NW,19.6,25.3,N/A,,Clear,320,2011-10-04 20:55:00
2:15 PM,55.4,41.0,58,29.95,10.0,NW,23.0,29.9,N/A,,Clear,320,2011-10-04 21:15:00
2:35 PM,55.4,41.0,58,29.96,9.0,WNW,20.7,25.3,N/A,,Clear,300,2011-10-04 21:35:00
2:55 PM,57.2,41.0,55,29.96,9.0,NW,19.6,27.6,N/A,,Clear,310,2011-10-04 21:55:00
3:15 PM,55.4,41.0,58,29.96,10.0,NW,18.4,25.3,N/A,,Clear,310,2011-10-04 22:15:00
3:35 PM,55.4,41.0,58,29.96,10.0,NW,16.1,21.9,N/A,,Clear,310,2011-10-04 22:35:00
3:55 PM,55.4,41.0,58,29.96,10.0,WNW,12.7,21.9,N/A,,Clear,300,2011-10-04 22:55:00
4:15 PM,55.4,41.0,58,29.96,9.0,NW,15.0,21.9,N/A,,Clear,310,2011-10-04 23:15:00
4:35 PM,53.6,42.8,67,29.96,9.0,NW,13.8,24.2,N/A,,Clear,320,2011-10-04 23:35:00
4:55 PM,53.6,42.8,67,29.95,9.0,NW,16.1,-,N/A,,Clear,310,2011-10-04 23:55:00
5:15 PM,53.6,42.8,67,29.95,9.0,NW,16.1,20.7,N/A,,Clear,310,2011-10-05 00:15:00
5:55 PM,53.6,42.8,67,29.96,9.0,NW,13.8,21.9,N/A,,Clear,310,2011-10-05 00:55:00
6:15 PM,53.6,42.8,67,29.95,9.0,WNW,13.8,21.9,N/A,,Clear,300,2011-10-05 01:15:00
6:35 PM,53.6,42.8,67,29.95,9.0,NW,13.8,19.6,N/A,,Clear,310,2011-10-05 01:35:00
6:55 PM,53.6,42.8,67,29.96,10.0,WNW,10.4,-,N/A,,Clear,300,2011-10-05 01:55:00
7:15 PM,53.6,44.6,72,29.95,10.0,WNW,10.4,16.1,N/A,,Clear,300,2011-10-05 02:15:00
7:35 PM,53.6,44.6,72,29.95,10.0,WNW,10.4,-,N/A,,Clear,300,2011-10-05 02:35:00
8:15 PM,51.8,44.6,76,29.96,10.0,NW,11.5,-,N/A,,Scattered Clouds,310,2011-10-05 03:15:00
8:35 PM,50.0,44.6,82,29.95,10.0,NW,10.4,17.3,N/A,,Partly Cloudy,310,2011-10-05 03:35:00
8:55 PM,50.0,44.6,82,29.95,10.0,WNW,10.4,17.3,N/A,,Clear,300,2011-10-05 03:55:00
9:15 PM,50.0,44.6,82,29.95,10.0,NW,9.2,-,N/A,,Clear,310,2011-10-05 04:15:00
9:35 PM,50.0,44.6,82,29.95,10.0,WNW,9.2,-,N/A,,Scattered Clouds,290,2011-10-05 04:35:00
9:55 PM,50.0,46.4,87,29.96,10.0,NW,12.7,-,N/A,,Scattered Clouds,310,2011-10-05 04:55:00
10:15 PM,50.0,46.4,87,29.96,10.0,NW,12.7,17.3,N/A,,Clear,310,2011-10-05 05:15:00
10:35 PM,50.0,46.4,87,29.96,10.0,NW,15.0,-,N/A,,Clear,310,2011-10-05 05:35:00
10:55 PM,50.0,46.4,87,29.96,10.0,WNW,10.4,-,N/A,,Partly Cloudy,300,2011-10-05 05:55:00
11:15 PM,50.0,46.4,87,29.95,10.0,NW,11.5,-,N/A,,Scattered Clouds,310,2011-10-05 06:15:00
11:35 PM,50.0,46.4,87,29.95,10.0,WNW,9.2,-,N/A,,Scattered Clouds,300,2011-10-05 06:35:00
11:55 PM,50.0,46.4,87,29.95,10.0,WNW,8.1,-,N/A,,Scattered Clouds,290,2011-10-05 06:55:00